Location: Newark
(56.0692°N, 115.8617°E)
Time: 10:39:28
(UTC+00:00)

Vanguard 2 Rocket - Pass Details

Date: 01 June 2020
Orbit: 556 x 3325 km, 32.9° (Epoch: 14 July)

Event Time Altitude Azimuth Distance (km) Brightness Sun altitude
Rises 12:43:20 0° 257° (WSW) 5,618 11.5 0.0°
Reaches altitude 10° 12:49:44 10° 234° (SW) 5,197 10.9 -0.6°
Maximum altitude 12:56:01 14° 210° (SSW) 5,344 10.7 -1.3°
Drops below altitude 10° 13:03:09 10° 187° (S) 6,025 10.7 -1.9°
Sets 13:12:13 0° 167° (SSE) 7,286 10.9 -2.8°
